Preview of NWS' New Version of Forecast
This preview is not operational and should not be used for support decisions.
Latest weather observations around

Bremerton, Bremerton National Airport (KPWT)

Using English Units (Switch to International System of Units)
Date/ Time (PST) Wind (mph) Vis. (mi) Weather Sky Cond. Temp (°F) Rel. Humidity Wind Chill (°F) Heat Index (°F) Pressure Precip. (in)
Air Dwpt 6 hour Altimeter (inHg) Sea level (inHg) 1 hr 3 hr 6 hr
Max Min
Feb 19 07:14 SW 3 0.25 Fog OVC003 34 34     100% 31   30.21        
Feb 19 07:05 Calm 0.5 Fog OVC003 34 34     100%     30.21        
Feb 19 07:01 Calm 1.75 Fog/Mist OVC003 34 34     100%     30.22        
Feb 19 06:46 WSW 5 2 Fog/Mist BKN003 OVC048 34 34     100% 29   30.22        
Feb 19 06:11 SSW 5 5 Fog/Mist OVC003 34 34     100% 29   30.22        
Feb 19 06:03 Calm 2.5 Fog/Mist OVC003 34 34     100%     30.22        
Feb 19 05:56 Calm 3 Fog/Mist OVC003 34 33     96%     30.23 30.28      
Feb 19 05:21 Calm 6 Fog/Mist BKN003 OVC006 34 34     100%     30.24        
Feb 19 04:56 Calm 8 Unknown Precipitation OVC005 34 33     96%     30.25 30.31 0    
Feb 19 04:49 Calm 7 Unknown Precipitation OVC005 34 34     100%     30.26   0    
Feb 19 04:18 Calm 10 Clear   34 34     100%     30.26        
Feb 19 03:56 Calm 10 Clear   34 33     96%     30.27        
Feb 19 03:46 S 3 10 Clear   34 34     100% 31   30.27        
Feb 19 03:38 Calm 10 Cloudy SCT004 OVC008 34 34     100%     30.27        
Feb 19 03:15 SW 5 10 Cloudy OVC004 34 34     100% 29   30.28        
Feb 19 02:56 SW 3 6 Fog/Mist OVC002 34 34     100% 31   30.28 30.34      
Feb 19 02:50 Calm 3 Fog/Mist OVC002 34 34     100%     30.28        
Feb 19 02:29 Calm 1.25 Fog/Mist OVC002 34 34     100%     30.28        
Feb 19 02:21 Calm 0.75 Fog/Mist OVC002 34 34     100%     30.29        
Feb 19 01:56 Calm 0.5 Fog OVC002 34 34     100%     30.29 30.35      
Feb 19 01:30 SSE 3 0.5 Fog OVC002 34 34     100% 31            
Feb 19 01:12 Calm 0.25 Fog OVC002 34 34     100%     30.29        
Feb 19 01:04 Calm 0.5 Fog OVC002 34 34     100%     30.29        
Feb 19 00:48 Calm 0.75 Fog/Mist OVC002 34 34     100%     30.29        
Feb 19 00:27 Calm 1.75 Fog/Mist OVC002 34 34     100%              
Feb 18 23:56 Calm 9 Cloudy SCT002 OVC029 34 33     96%     30.3 30.35      
Feb 18 23:16 Calm 10 Cloudy OVC029 34 34     100%     30.31        
Feb 18 22:56 Calm 9 Cloudy SCT010 OVC031 33 33     100%     30.31 30.37      
Feb 18 22:38 Calm 8 Cloudy BKN012 OVC031 34 34     100%     30.32        
Feb 18 20:56 Calm 7 Mostly Cloudy SCT035 BKN060 35 34     96%     30.32 30.37      
Feb 18 20:20 E 3 10 Cloudy SCT019 OVC033 36 36     100% 33   30.32        
Feb 18 19:56 Calm 10 Light Rain OVC019 37 35     92%     30.33 30.39 0    
Feb 18 18:56 Calm 10 Unknown Precipitation OVC023 36 34     92%     30.34 30.4 0 0  
Feb 18 18:29 Calm 10 Cloudy BKN025 OVC030 36 34     93%     30.34        
Feb 18 17:56 Calm 10 Cloudy SCT043 OVC060 37 34     89%     30.34 30.39      
Feb 18 16:56 Calm 10 Mostly Cloudy BKN060 40 33     76%     30.34 30.39      
Feb 18 14:56 SSW 5 10 Mostly Clear FEW022 41 33     73% 38   30.35 30.4      
Feb 18 13:56 SW 7 10 Mostly Clear FEW036 40 34     79% 35   30.36 30.42      
Feb 18 13:28 SSW 5 10 Cloudy FEW027 OVC034 39 34     81% 36   30.37        
Feb 18 12:13 Calm 10 Mostly Cloudy SCT020 BKN046 39 34     81%     30.39        
Feb 18 11:56 Calm 10 Cloudy BKN020 OVC044 40 35     83%     30.4 30.46      
Feb 18 11:48 Calm 10 Cloudy BKN020 OVC046 37 34     87%     30.4        
Feb 18 10:56 Calm 10 Cloudy SCT020 OVC048 38 36     92%     30.4 30.46      
Feb 18 10:52 Calm 10 Cloudy SCT020 BKN034 OVC048 37 36     93%     30.4        
Feb 18 10:43 Calm 10 Cloudy BKN020 BKN034 OVC046 39 39     100%     30.4        
Feb 18 10:13 WSW 3 10 Cloudy SCT003 SCT021 OVC048 36 36     100% 33   30.4        
Feb 18 10:02 WSW 3 10 Cloudy BKN003 BKN024 OVC048 36 36     100% 33   30.4        
Feb 18 09:49 SW 5 10 Cloudy FEW003 SCT024 OVC046 36 36     100% 32   30.39        
Feb 18 09:20   10 Cloudy SCT024 OVC048 36 34     93%     30.4        
Feb 18 08:56 Calm 10 Cloudy FEW002 BKN024 OVC050 34 33     96%     30.39 30.45      
Feb 18 08:46 Calm 10 Cloudy SCT002 BKN026 OVC050 34 34     100%     30.39        
Feb 18 08:04 Calm 7 Cloudy BKN002 OVC050 32 32     100%     30.38        
Feb 18 07:56 Calm 6 Fog/Mist SCT002 OVC048 32 32     100%     30.38 30.44      
Feb 18 07:47 Calm 6 Fog/Mist FEW002 OVC048 32 32     100%     30.38        
Feb 18 06:21 Calm 7 Cloudy SCT002 OVC044 32 30     93%     30.38        
Feb 18 06:12 Calm 3 Fog/Mist BKN002 OVC044 32 30     93%     30.37        
Feb 18 06:08 WSW 3 2.5 Fog/Mist SCT002 OVC044 32 30     93% 29            
Feb 18 05:56 Calm 9 Cloudy FEW022 OVC044 32 32     100%     30.37 30.43      
Feb 18 05:02 Calm 3 Fog/Mist OVC044 32 30     93%     30.36        
Feb 18 04:56 Calm 1.5 Fog/Mist OVC044 32 32     100%     30.36 30.42      
Feb 18 04:45 Calm 1.75 Fog/Mist OVC044 32 32     100%     30.36        
Feb 18 04:34 Calm 3 Fog/Mist OVC044 32 32     100%     30.36        
Feb 18 04:13 Calm 1.5 Fog/Mist FEW001 OVC044 32 32     100%     30.36        
Feb 18 04:05 Calm 1.75 Fog/Mist BKN001 OVC044 32 32     100%     30.35        
Feb 18 03:56 Calm 4 Clear   32 32     100%     30.35 30.41      
Feb 18 03:47 Calm 7 Cloudy BKN001 OVC042 32 32     100%     30.35        
Feb 18 03:29   7 Cloudy FEW001 SCT025 OVC042 32 32     100%              
Feb 18 03:05 Calm 10 Cloudy SCT001 BKN025 OVC038 34 32     93%     30.36        
Feb 18 02:56 Calm 7 Cloudy SCT001 SCT021 OVC038 33 32     96%     30.36 30.41      
Feb 18 02:10 Calm 8 Cloudy SCT025 OVC038 32 32     100%     30.36        
Feb 18 01:56 Calm 7 Cloudy BKN025 OVC036 33 32     96%     30.35 30.41      
Feb 18 01:51 Calm 8 Cloudy BKN025 OVC036 34 32     93%     30.35        
Feb 18 01:23 Calm 9 Clear   34 32     93%     30.35        
Feb 18 00:56 Calm 10 Clear   32 32     100%     30.35 30.4      
Feb 18 00:38 Calm 10 Cloudy FEW027 OVC034 32 30     93%     30.34        
Feb 17 23:56 Calm 10 Cloudy OVC027 32 31     96%     30.33 30.39      
Feb 17 23:10 Calm 6 Fog/Mist BKN027 BKN032 28 28     100%              
Feb 17 23:02 Calm 2 Fog/Mist BKN027 BKN032 BKN110 28 28     100%     30.32        
Feb 17 22:56 Calm 2 Fog/Mist SCT027 SCT032 BKN110 29 29     100%     30.32 30.38      
Feb 17 22:47 Calm 3 Fog/Mist FEW027 BKN110 28 28     100%     30.32        
Feb 17 22:39 Calm 1.75 Fog/Mist FEW035 BKN110 28 28     100%     30.32        
Feb 17 22:34 Calm 4 Fog/Mist FEW035 OVC110 28 28     100%     30.32        
Feb 17 22:27 Calm 2.5 Fog/Mist SCT037 OVC110 28 28     100%     30.31        
Feb 17 22:14 Calm 1 Fog/Mist BKN037 BKN110 28 28     100%     30.32        
Feb 17 22:04 Calm 0.5 Fog BKN037 BKN110 28 28     100%     30.31        
Feb 17 21:54 Calm 0.75 Fog/Mist FEW037 SCT110 28 28     100%     30.31        
Feb 17 21:29 Calm 1.75 Fog/Mist OVC110 28 28     100%     30.3        
Feb 17 20:56 Calm 9 Cloudy OVC110 30 30     100%     30.29 30.35      
Feb 17 17:56 Calm 10 Partly Cloudy SCT110 34 33     96%     30.26 30.32      
Feb 17 16:56 SW 3 10 Clear CLR 38 34     85% 36   30.24 30.29      
Feb 17 15:56 SW 3 10 Mostly Clear FEW029 38 35     89% 36   30.23 30.28     0
Feb 17 15:12 SW 6 10 Partly Cloudy FEW023 SCT032 39 36     87% 35   30.22        
Feb 17 14:56   10 Mostly Cloudy SCT023 BKN029 BKN034 39 36     89%     30.22 30.27      
Feb 17 14:45 SW 6 10 Mostly Cloudy FEW019 SCT023 BKN032 39 36     87% 35   30.21        
Feb 17 13:56 NE 3 10 Mostly Cloudy FEW015 SCT022 BKN028 41 34     76% 39   30.2 30.25      
Feb 17 12:56 NE 7 10 Mostly Cloudy FEW012 BKN020 BKN026 40 35     83% 35   30.19 30.24 0 0  
Feb 17 12:40 7 10 Cloudy SCT011 OVC017 39 36     87% 34   30.19   0    
Feb 17 12:03 ENE 5 9 Light Rain BKN011 BKN014 OVC024 39 36     87% 36   30.19   0    
Feb 17 11:56 ENE 5 8 Light Rain SCT011 BKN017 OVC036 39 37     93% 36   30.19 30.24 0    
Feb 17 11:46 NE 5 10 Light Rain SCT011 BKN019 OVC036 39 37     93% 36   30.19   0    
Feb 17 11:25 NE 6 10 Cloudy FEW008 BKN013 OVC026 37 37     100% 33   30.19   0    
Feb 17 10:56 E 6 10 Light Rain FEW010 SCT018 OVC025 37 37     100% 32   30.17 30.23 0    
Feb 17 10:24 ENE 3 10 Cloudy SCT008 OVC021 37 36     93% 35   30.16        
Feb 17 09:56 Calm 10 Cloudy OVC008 38 37     97%     30.16 30.21 0   0
Feb 17 08:56 Calm 7 Light Rain OVC014 34 33     96%     30.13 30.19 0    
Feb 17 08:49 Calm 5 Light Rain and Fog/Mist OVC014 34 34     100%     30.13   0    
Feb 17 07:56 Calm 10 Cloudy OVC022 32 32     100%     30.1 30.16      
Feb 17 07:20 Calm 4 Fog/Mist FEW002 BKN027 OVC065 30 30     100%     30.08        
Feb 17 07:16 Calm 2 Fog/Mist SCT002 SCT027 OVC065 30 30     100%     30.08        
Feb 17 07:13 Calm 1 Fog/Mist SCT002 BKN043 OVC065 30 30     100%     30.08        
Feb 17 06:56 Calm 0.5 Fog OVC002 32 31     96%     30.08 30.13      
Feb 17 05:56 Calm 0.25 Fog OVC002 33 32     96%     30.06 30.12      
Feb 17 04:56 Calm 0.25 Fog OVC002 33 33     100%     30.03 30.09      
Feb 17 04:05 Calm 0.25 Fog OVC002 34 32     93%     30.01        
Feb 17 03:56 Calm 0.5 Fog OVC002 33 32     96%     30.01 30.06     0
Feb 17 03:54 Calm 0.5 Fog OVC002 34 32     93%     30.01        
Feb 17 03:44 Calm 0.75 Fog/Mist OVC002 34 32     93%     30.01        
Feb 17 03:38 Calm 1.75 Fog/Mist OVC002 34 32     93%     30.01        
Feb 17 03:12 Calm 10 Cloudy BKN002 OVC025 34 32     93%     30        
Feb 17 03:03 Calm 10 Cloudy SCT002 OVC025 34 32     93%     30        
Feb 17 02:56 Calm 10 Cloudy OVC025 33 32     96%     29.99 30.05      
Feb 17 02:31 Calm 10 Cloudy SCT008 OVC027 34 32     93%     29.99        
Feb 17 01:56 Calm 10 Cloudy OVC008 33 33     100%     29.98 30.03      
Feb 17 01:44 SSW 3 10 Cloudy BKN008 OVC025 34 32     93% 31   29.98        
Feb 17 01:28 Calm 10 Cloudy SCT008 OVC025 34 32     93%     29.97        
Feb 17 01:07 Calm 9 Cloudy BKN008 OVC025 34 34     100%     29.97        
Feb 17 00:56 Calm 10 Cloudy SCT008 OVC025 33 33     100%     29.97 30.02 0 0  
Feb 17 00:19 Calm 10 Light Rain FEW008 SCT015 OVC020 34 34     100%     29.95   0    
Feb 16 23:56 Calm 7 Cloudy OVC008 34 33     96%     29.95 30      
Feb 16 23:26 Calm 10 Cloudy OVC008 34 34     100%     29.94        
Feb 16 22:56 Calm 10 Mostly Cloudy BKN010 34 33     96%     29.93 29.98 0    
Feb 16 22:49 Calm 10 Mostly Cloudy BKN010 34 34     100%     29.93   0    
Feb 16 22:21 Calm 10 Clear   34 34     100%     29.93   0    
Feb 16 21:56 NE 3 4 Clear   34 33     96% 31   29.92 29.98 0    
Feb 16 20:56 NE 6 6 Light Rain and Fog/Mist OVC017 34 33     96% 29   29.9 29.96 0    
Feb 16 19:56 ENE 5 9 Light Rain BKN025 OVC029 34 33     96% 30   29.89 29.94 0    
Feb 16 18:56 E 3 10 Unknown Precipitation FEW004 OVC018 35 33     92% 32   29.88 29.93 0 0  
Feb 16 18:38 NE 9 10 Light Rain FEW005 OVC016 36 34     93% 29   29.88   0    
Feb 16 18:22 NE 6 10 Light Rain FEW005 OVC014 36 34     93% 31   29.87   0    
Feb 16 17:56 NE 8 9 Light Rain OVC014 35 34     96% 29   29.86 29.91 0    
Feb 16 17:12 NE 9 10 Light Rain FEW007 BKN011 OVC019 36 34     93% 29   29.85   0    
Feb 16 17:05 NE 10 10 Unknown Precipitation BKN009 OVC019 36 34     93% 28   29.85   0    
Feb 16 16:56 NE 10 10 Unknown Precipitation FEW007 OVC018 37 37     100% 30   29.85 29.9 0    
Feb 16 16:47 NE 6 10 Unknown Precipitation BKN020 37 36     93% 33   29.84   0    
Feb 16 16:13 Calm 10 Light Rain FEW018 BKN030 BKN038 37 37     100%     29.84   0    
Feb 16 15:56 Calm 8 Light Rain SCT011 BKN016 OVC030 39 37     93%     29.84 29.89 0   0
Feb 16 15:14 Calm 10 Cloudy SCT014 OVC024 39 37     93%     29.84   0    
Feb 16 14:56 Calm 10 Light Rain OVC014 40 37     89%         0    
Feb 16 14:41 SSW 3 10 Light Rain BKN012 OVC020 39 36     87% 37   29.83   0    
Feb 16 13:56 S 5 10 Cloudy SCT014 OVC018 40 36     86% 37   29.83 29.89      
Feb 16 13:48 S 5 10 Cloudy BKN014 OVC018 39 36     87% 36   29.83        
Feb 16 13:40 S 5 10 Cloudy SCT012 OVC018 39 36     87% 36   29.83        
Feb 16 13:24 SW 7 10 Cloudy OVC013 39 36     87% 34   29.83        
Feb 16 12:56 Calm 10 Cloudy BKN009 BKN015 OVC026 40 36     86%     29.83 29.88      
Feb 16 12:54 SSW 3 10 Cloudy BKN009 BKN015 OVC026 39 37     93% 37   29.83        
Feb 16 12:21 SSW 8 10 Cloudy BKN011 OVC022 37 36     93% 31   29.84        
Feb 16 11:56 SW 7 10 Cloudy FEW011 OVC020 38 36     92% 33   29.84 29.9      
Feb 16 11:23 SSW 3 10 Mostly Cloudy FEW007 BKN020 37 36     93% 35   29.84        
Feb 16 10:56 SW 5 10 Cloudy OVC018 40 39     97% 37   29.83 29.88      
Feb 16 10:24 SSW 6 10 Cloudy FEW006 OVC018 39 37     93% 35   29.83        
Feb 16 09:56 SW 5 10 Cloudy BKN015 OVC021 38 38     100% 34   29.83 29.88 0   0
Feb 16 09:48 SW 3 10 Cloudy OVC015 37 37     100% 35   29.83   0    
Feb 16 09:06 SSW 3 8 Unknown Precipitation OVC011 37 36     93% 35   29.82   0    
Feb 16 08:56 SSW 3 10 Cloudy FEW006 BKN009 OVC023 36 36     100% 33   29.82 29.88 0    
Feb 16 08:49 SSW 3 10 Light Rain BKN009 BKN013 OVC028 36 36     100% 33   29.82   0    
Feb 16 08:35 SSW 5 3 Light Rain and Fog/Mist FEW007 BKN022 OVC028 36 34     93% 32   29.82   0    
Feb 16 07:56 Calm 7 Light Rain SCT021 BKN029 OVC034 35 35     100%     29.81 29.86 0    
Feb 16 07:45 Calm 10 Mostly Cloudy FEW023 BKN032 36 34     93%     29.8   0    
Feb 16 06:56 Calm 10 Mostly Cloudy BKN021 BKN027 34 34     100%     29.79 29.85 0 0  
May 15 09:04 SW 8 10 Cloudy OVC007 55 52     88%     29.96        
May 14 08:56 Calm 10 Clear CLR 62 54     75%     29.97 30.01      
May 14 07:56 SSW 6 10 Clear CLR 58 54     87%     29.98        
Notice The following observation data may not be complete
May 13 20:56 Calm 10 Clear CLR   52      %     29.9        
May 13 12:56 NNE 7 10 Clear CLR 75 55     50%   75 29.95        
May 13 02:56 Calm 10 Clear CLR 47 44     90%     29.97 30.01      
May 12 17:56 ENE 9 10 Clear CLR 74 48     40%   73 29.99        
May 12 01:56 Calm 10 Clear CLR 45 45     100%     30.2        
May 12 00:56 Calm 10 Clear CLR 47 46     97%     30.2        
May 11 15:56 Calm 10 Mostly Cloudy BKN033 63 49     60%     30.23        
May 11 12:56 SSE 5 10 Cloudy BKN024 OVC028 57 49     74%     30.27 30.33      
May 11 07:56 Calm 10 Cloudy BKN019 OVC027 49 47     93%     30.27 30.32      
Jun 11 09:56 SSW 3 10 Cloudy OVC005 52 49     89%     30.06        
Jun 10 19:56 NNE 5 10 Clear CLR 62 45     53%     29.9 29.95      
Jun 10 15:56 WSW 3 10 Cloudy SCT046 OVC060 61 46     58%     29.86        
Notice The following observation data may not be complete
Jun 10 08:40   10 Cloudy OVC006          %              
Jun 10 02:15 WSW 7 10 Cloudy OVC004 48 46     93% 45   29.87        
Jun 09 16:56 SSW 8 10 Light Rain FEW026 58 46     65%     29.83 29.89 0   0
Jun 09 04:36 Calm 10 Cloudy SCT021 BKN028 OVC048 48 46     93%     29.93        
Jun 08 09:48 SSW 9 10 Light Rain BKN006 OVC030 55 54     94%     29.68   0    
Jun 08 04:56 SW 3 10 Light Rain SCT002 BKN010 OVC043 52 52     100%     29.64   0   0
Jun 07 09:56 Calm 10 Clear   67 49     52%     29.8        
Jun 06 02:56 E 5 10 Clear   54 43     66%     30.03        
Jun 05 16:56 ENE 9 10 Clear   71 39     31%   69 30.07